Location: Ch�risy
(50.2331°N, 2.9131°E)
Time: 01:33:44
(UTC+00:00)

SJ-11-01 - Pass Details

Date: 17 January 2021
Orbit: 684 x 701 km, 98.0° (Epoch: 28 February)

Event Time Altitude Azimuth Distance (km) Brightness Sun altitude
Rises 18:26:49 0° 163° (SSE) 3,061 7.5 -20.1°
Reaches altitude 10° 18:29:03 10° 163° (SSE) 2,146 6.7 -20.5°
Maximum altitude 18:33:46 87° 77° (ENE) 700 4.2 -21.2°
Drops below altitude 10° 18:38:30 10° 347° (NNW) 2,152 6.9 -22.0°
Sets 18:40:45 0° 347° (NNW) 3,071 7.7 -22.3°
